Orbital Elements at Epoch 2459000.5 (2020-May-31.0) TDB
Reference: JPL 18 (heliocentric ecliptic J2000)
Element | Value | Uncertainty (1-sigma) | Units |
e | .1486147136193355 | 3.3651e-08 | |
a | 2.270093343889358 | 9.267e-09 | au |
q | 1.932724071698082 | 7.8538e-08 | au |
i | 4.402993474293269 | 4.4372e-06 | deg |
node | 321.5076062269429 | 4.8395e-05 | deg |
peri | 91.08233083895101 | 5.087e-05 | deg |
M | 255.7545972681874 | 1.6225e-05 | deg |
tp | 2459362.258222036281 (2021-May-27.75822204) | 5.728e-05 | TDB |
period | 1249.292117640002 3.42 | 7.6499e-06 2.094e-08 | d yr |
n | .2881631885103578 | 1.7645e-09 | deg/d |
Q | 2.607462616080635 | 1.0644e-08 | au |
|
| | Orbit Determination Parameters
Additional Information
|